DW4127 Weather Reports


Display with metric or nautical units.
time (UTC)temp
F
wind
direction
speed
MPH
gust
MPH
rain 1hr
in
rain 24hr
in
rain mn
in
humidity
%
barometer
mb
20260506202609 63 23 2.0 8.0 0.00 0.07 0.07 75 1013.0
20260506201549 61 338 3.0 8.0 0.00 0.07 0.07 77 1013.1
20260506200609 61 338 2.0 8.0 0.00 0.07 0.07 77 1013.4
20260506195549 60 0 5.0 10.0 0.00 0.07 0.07 78 1013.2
20260506194609 59 338 3.0 7.0 0.00 0.07 0.07 80 1013.2
20260506193549 58 0 3.0 9.0 0.00 0.07 0.07 81 1013.4
20260506192729 58 0 3.0 6.0 0.00 0.07 0.07 81 1013.6
20260506191549 58 23 2.0 5.0 0.00 0.07 0.07 82 1013.7
20260506190549 57 0 3.0 5.0 0.00 0.07 0.07 82 1013.7
20260506185608 57 0 4.0 8.0 0.00 0.07 0.07 82 1013.7
20260506184548 58 338 2.0 5.0 0.00 0.07 0.07 82 1013.6
20260506183549 59 338 1.0 3.0 0.00 0.07 0.07 84 1013.1
20260506182548 57 0 3.0 8.0 0.00 0.07 0.07 84 1012.3
20260506181649 57 23 2.0 10.0 0.00 0.07 0.07 85 1012.1
20260506180548 56 0 5.0 15.0 0.00 0.07 0.07 85 1012.0
20260506175548 56 0 3.0 12.0 0.00 0.07 0.07 86 1012.1
20260506174548 56 0 4.0 12.0 0.00 0.07 0.07 86 1012.6
20260506173548 55 0 3.0 9.0 0.00 0.07 0.07 86 1012.8
20260506172548 56 0 2.0 5.0 0.00 0.07 0.07 87 1013.2
20260506171548 56 0 2.0 7.0 0.00 0.07 0.07 86 1013.1
20260506170549 55 0 4.0 11.0 0.00 0.07 0.07 85 1013.3
20260506165608 55 0 5.0 14.0 0.00 0.07 0.07 85 1012.8
20260506164548 55 0 4.0 10.0 0.01 0.07 0.07 85 1013.3
20260506163549 56 23 3.0 10.0 0.02 0.07 0.07 85 1013.3
20260506162549 56 0 5.0 11.0 0.07 0.07 0.07 85 1013.5
20260506161548 57 0 1.0 5.0 0.07 0.07 0.07 87 1013.7
20260506160549 56 45 1.0 4.0 0.07 0.07 0.07 86 1013.3
20260506155609 55 23 2.0 8.0 0.07 0.07 0.07 85 1013.1
20260506154549 55 0 3.0 7.0 0.06 0.06 0.06 85 1012.1
20260506153548 55 338 4.0 9.0 0.05 0.05 0.05 81 1014.6
20260506152548 55 23 2.0 5.0 0.00 0.00 0.00 81 1014.9
20260506151549 55 0 1.0 3.0 0.00 0.00 0.00 81 1014.6
20260506150549 55 338 2.0 5.0 0.00 0.00 0.00 80 1014.1
20260506145549 56 0 3.0 8.0 0.00 0.00 0.00 78 1013.2
20260506144549 55 0 4.0 11.0 0.00 0.00 0.00 78 1013.2
20260506143709 56 338 2.0 9.0 0.00 0.00 0.00 79 1013.6
20260506142548 55 0 4.0 9.0 0.00 0.00 0.00 79 1013.3
20260506141548 55 0 4.0 11.0 0.00 0.00 0.00 80 1013.1
20260506140548 55 338 5.0 13.0 0.00 0.00 0.00 80 1013.1
20260506135548 55 0 4.0 10.0 0.00 0.00 0.00 81 1012.5
20260506134608 55 0 4.0 9.0 0.00 0.00 0.00 81 1012.5
20260506133548 55 0 4.0 10.0 0.00 0.00 0.00 80 1012.6
20260506132548 55 0 3.0 8.0 0.00 0.00 0.00 80 1012.4
20260506131548 54 0 6.0 13.0 0.00 0.00 0.00 80 1012.1
20260506130548 55 0 5.0 10.0 0.00 0.00 0.00 80 1012.3
20260506125548 55 0 5.0 12.0 0.00 0.00 0.00 80 1012.0
20260506124608 55 0 5.0 11.0 0.00 0.00 0.00 79 1012.0
20260506123548 55 0 5.0 13.0 0.00 0.00 0.00 79 1012.0
20260506122548 55 0 6.0 12.0 0.00 0.00 0.00 78 1011.9
20260506121608 56 0 5.0 11.0 0.00 0.00 0.00 77 1011.6
20260506120548 56 0 4.0 11.0 0.00 0.00 0.00 76 1011.7
20260506115548 56 0 6.0 14.0 0.00 0.00 0.00 76 1011.6
20260506114548 56 0 3.0 8.0 0.00 0.00 0.00 76 1011.4
20260506113548 56 0 3.0 10.0 0.00 0.00 0.00 75 1011.0
20260506112548 56 0 4.0 10.0 0.00 0.00 0.00 75 1011.0
20260506111548 57 0 3.0 10.0 0.00 0.00 0.00 75 1011.0
20260506110548 57 0 6.0 12.0 0.00 0.00 0.00 74 1010.7
20260506105608 57 0 3.0 11.0 0.00 0.00 0.00 73 1010.6
20260506104548 58 0 4.0 9.0 0.00 0.00 0.00 73 1010.3
20260506103548 58 0 6.0 13.0 0.00 0.00 0.00 73 1010.1
20260506102548 58 0 3.0 10.0 0.00 0.00 0.00 73 1010.0
20260506101548 58 0 5.0 11.0 0.00 0.00 0.00 73 1009.7
20260506100608 59 0 3.0 8.0 0.00 0.00 0.00 73 1009.6
20260506095548 59 0 3.0 11.0 0.00 0.00 0.00 73 1009.6
20260506094548 59 23 5.0 11.0 0.00 0.00 0.00 73 1009.5
20260506093548 59 0 4.0 9.0 0.00 0.00 0.00 73 1009.5
20260506092548 59 0 4.0 9.0 0.00 0.00 0.00 73 1009.5
20260506091548 59 0 2.0 5.0 0.00 0.00 0.00 73 1009.3
20260506090548 59 0 2.0 6.0 0.00 0.00 0.00 73 1009.3
20260506085548 59 0 3.0 7.0 0.00 0.00 0.00 73 1009.2
20260506084548 60 0 2.0 7.0 0.00 0.00 0.00 73 1008.9
20260506083548 60 338 3.0 8.0 0.00 0.00 0.00 74 1009.0
20260506082548 60 0 3.0 6.0 0.00 0.00 0.00 74 1008.8
20260506081548 60 0.0 3.0 0.00 0.00 0.00 75 1008.5
20260506080548 60 338 3.0 6.0 0.00 0.00 0.00 74 1008.7
20260506072548 61 0 3.0 6.0 0.00 0.00 0.00 75 1008.7
20260506071548 61 338 2.0 9.0 0.00 0.00 0.00 74 1008.7
20260506070548 61 0 3.0 8.0 0.00 0.00 0.00 75 1008.9
20260506061608 62 338 4.0 10.0 0.00 0.00 0.00 75 1008.7
20260506060548 62 338 3.0 9.0 0.00 0.00 0.00 75 1008.5
20260506050548 64 23 5.0 11.0 0.00 0.00 0.00 74 1008.3
20260506044549 66 0 4.0 11.0 0.00 0.00 0.00 75 1008.2
20260506043549 66 0 4.0 10.0 0.00 0.00 0.00 74 1008.3
20260506042549 67 0 5.0 13.0 0.00 0.00 0.00 74 1008.1
20260506041549 67 0 4.0 9.0 0.00 0.00 0.00 74 1007.9
20260506040549 68 0 5.0 11.0 0.00 0.00 0.00 73 1007.7
20260506035549 69 0 8.0 14.0 0.00 0.00 0.00 73 1007.7
20260506034609 70 0 6.0 14.0 0.00 0.00 0.00 72 1007.5
20260506033549 70 0 3.0 8.0 0.00 0.00 0.00 73 1007.3
20260506032549 71 0 6.0 12.0 0.00 0.00 0.00 73 1007.4
20260506031547 71 0 5.0 14.0 0.00 0.00 0.00 72 1007.0
20260506030549 72 0 5.0 11.0 0.00 0.00 0.00 71 1007.1
20260506025549 72 0 6.0 11.0 0.00 0.00 0.00 71 1006.9
20260506024549 73 315 3.0 9.0 0.00 0.00 0.00 70 1006.5
20260506023549 74 0 6.0 13.0 0.00 0.00 0.00 69 1005.9
20260506022609 75 0 3.0 10.0 0.00 0.00 0.00 68 1005.8
20260506021549 75 0 4.0 7.0 0.00 0.00 0.00 68 1005.4
20260506020609 75 0 3.0 9.0 0.00 0.00 0.00 68 1005.3
20260506015549 75 0 4.0 9.0 0.00 0.00 0.00 67 1005.2
20260506014549 75 0 4.0 11.0 0.00 0.00 0.00 67 1005.5
20260506013549 76 23 4.0 10.0 0.00 0.00 0.00 67 1004.8
20260506012549 77 0 5.0 10.0 0.00 0.00 0.00 67 1004.8
20260506011549 78 0 4.0 10.0 0.00 0.00 0.00 66 1004.9
20260506010549 78 45 3.0 8.0 0.00 0.00 0.00 65 1004.5
20260506005549 79 0 2.0 6.0 0.00 0.00 0.00 64 1004.3
20260506004549 79 0 2.0 4.0 0.00 0.00 0.00 63 1004.4
20260506003549 80 45 3.0 9.0 0.00 0.00 0.00 63 1004.3
20260506002549 81 0 4.0 11.0 0.00 0.00 0.00 62 1004.3
20260506001549 82 0 4.0 8.0 0.00 0.00 0.00 61 1004.4
20260506000549 83 0 4.0 11.0 0.00 0.00 0.00 59 1004.1
20260505235709 85 23 4.0 11.0 0.00 0.00 0.00 57 1003.5
20260505234549 85 0 3.0 8.0 0.00 0.00 0.00 54 1003.7
20260505233549 85 248 3.0 7.0 0.00 0.00 0.00 68 1003.8
20260505232549 86 180 4.0 10.0 0.00 0.00 0.00 66 1003.1
20260505231549 87 180 3.0 9.0 0.00 0.00 0.00 66 1003.0
20260505230609 87 158 3.0 10.0 0.00 0.00 0.00 65 1003.0
20260505225549 87 180 3.0 5.0 0.00 0.00 0.00 65 1002.8
20260505224549 88 158 4.0 8.0 0.00 0.00 0.00 62 1003.0
20260505223549 88 158 4.0 9.0 0.00 0.00 0.00 61 1002.9
20260505222549 89 225 2.0 5.0 0.00 0.00 0.00 58 1002.5
20260505221609 89 135 4.0 8.0 0.00 0.00 0.00 58 1002.7
20260505220549 89 180 5.0 10.0 0.00 0.00 0.00 57 1002.8
20260505215549 89 225 4.0 8.0 0.00 0.00 0.00 56 1002.8
20260505214549 89 203 5.0 10.0 0.00 0.00 0.00 56 1002.8
20260505213549 89 225 6.0 12.0 0.00 0.00 0.00 58 1003.1
20260505212549 89 225 5.0 11.0 0.00 0.00 0.00 57 1003.0
20260505211609 89 203 5.0 11.0 0.00 0.00 0.00 57 1003.3
20260505210549 89 225 4.0 11.0 0.00 0.00 0.00 56 1003.1
20260505205549 90 225 4.0 9.0 0.00 0.00 0.00 57 1003.4
20260505204549 89 225 5.0 9.0 0.00 0.00 0.00 58 1003.4
20260505203549 89 225 5.0 13.0 0.00 0.00 0.00 60 1003.7